Burlington, WI

7:53 AM CST on December 10, 2019 (GMT -0600)
Burlington

Weather History for KBUU - November, 2019

Change the Weather History Date:

Tuesday, November 12, 2019

  Actual Average (KENW) Record (KENW)
Temperature  
Mean Temperature -9 °F -  
Max Temperature 14 °F 45 °F 66 °F (1964)
Min Temperature -32 °F 30 °F 9 °F (1986)
Degree Days  
Heating Degree Days 74    
Moisture  
Dew Point -4 °F    
Average Humidity 67    
Maximum Humidity 89    
Minimum Humidity 50    
Precipitation  
Precipitation 0.00 in - - ()
Sea Level Pressure  
Sea Level Pressure 30.42 in    
Wind  
Wind Speed 1 mph ()    
Max Wind Speed 10 mph    
Max Gust Speed 17 mph    
Visibility 10.0 miles    
Events      
Averages and records for this station are not official NWS values.
T = Trace of Precipitation, MM = Missing Value Source: Averaged Metar Reports

Daily Weather History Graph

Daily Weather History Graph

Search for Another Location

Airport or City:

Astronomy

Nov. 12, 2019 Rise Set
Actual Time 6:40 AM CST 4:33 PM CST
Civil Twilight 6:10 AM CST 5:03 PM CST
Nautical Twilight 5:36 AM CST 5:37 PM CST
Astronomical Twilight 5:03 AM CST 6:10 PM CST
Moon 5:00 PM CST (11/12) 6:30 AM CST (11/12)
Length of Visible Light 10h 52m
Length of Day
9h 52m
Full, 100% of the Moon is Illuminated
Nov 12
Full
Nov 19
Last Quarter
Nov 26
New
Dec 4
First Quarter
Dec 11
Full

Hourly Weather History & Observations

Time (CST) Temp. Windchill Dew Point Humidity Pressure Visibility Wind Dir Wind Speed Gust Speed Precip Events Conditions
12:15 AM -9.4 °F - -19.7 °F 61% 30.41 in 10.0 mi Calm Calm - N/A   Clear
12:35 AM 3.6 °F -3.8 °F -4.7 °F 68% 30.41 in 10.0 mi NW 3.5 mph - N/A   Clear
12:55 AM 5.0 °F -4.1 °F -2.9 °F 70% 30.42 in 10.0 mi NW 4.6 mph - N/A   Clear
1:15 AM 5.0 °F - -3.1 °F 69% 30.42 in 10.0 mi Calm Calm - N/A   Clear
1:35 AM 5.4 °F - -3.1 °F 68% 30.42 in 10.0 mi Calm Calm - N/A   Clear
1:55 AM 4.8 °F - -3.6 °F 68% 30.42 in 10.0 mi Calm Calm - N/A   Clear
2:15 AM 3.7 °F -3.6 °F -4.0 °F 70% 30.42 in 10.0 mi NW 3.5 mph - N/A   Clear
2:35 AM 3.2 °F - -4.9 °F 69% 30.42 in 10.0 mi Calm Calm - N/A   Clear
2:55 AM 3.7 °F - -4.2 °F 70% 30.42 in 10.0 mi Calm Calm - N/A   Clear
3:15 AM -12.1 °F -30.1 °F -21.8 °F 62% 30.43 in 10.0 mi NW 9.2 mph 17.3 mph N/A   Clear
3:55 AM 1.2 °F -10.1 °F -6.7 °F 69% 30.43 in 10.0 mi NW 5.8 mph - N/A   Clear
4:15 AM -32.6 °F -45.1 °F -44.5 °F 52% 30.43 in 10.0 mi NW 3.5 mph - N/A   Clear
4:35 AM -18.4 °F - -29.0 °F 58% 30.44 in 10.0 mi Calm Calm - N/A   Clear
5:15 AM 0.5 °F - -6.2 °F 74% 30.44 in 10.0 mi Calm Calm - N/A   Clear
5:35 AM -0.8 °F - -6.9 °F 75% 30.44 in 10.0 mi Calm Calm - N/A   Clear
5:55 AM -8.5 °F - -15.3 °F 72% 30.45 in 10.0 mi Calm Calm - N/A   Clear
6:15 AM - - - N/A% 30.45 in 10.0 mi Calm Calm - N/A   Clear
6:35 AM 0.3 °F - -5.4 °F 77% 30.46 in 10.0 mi Calm Calm - N/A   Clear
6:55 AM 1.2 °F - -4.4 °F 77% 30.47 in 10.0 mi Calm Calm - N/A   Clear
7:15 AM 1.9 °F - -4.0 °F 76% 30.47 in 10.0 mi Calm Calm - N/A   Clear
7:55 AM 3.2 °F - -3.1 °F 75% 30.48 in 10.0 mi Calm Calm - N/A   Clear
8:15 AM 3.9 °F -3.4 °F -2.9 °F 73% 30.49 in 10.0 mi NW 3.5 mph - N/A   Clear
8:35 AM 4.6 °F - -2.6 °F 72% 30.49 in 10.0 mi Calm Calm - N/A   Clear
8:55 AM 5.5 °F - -2.2 °F 70% 30.48 in 10.0 mi Calm Calm - N/A   Clear
9:15 AM 6.3 °F - -1.7 °F 70% 30.48 in 10.0 mi Calm Calm - N/A   Clear
9:35 AM 6.8 °F - -1.5 °F 69% 30.48 in 10.0 mi Calm Calm - N/A   Clear
9:55 AM 7.7 °F - -1.3 °F 67% 30.48 in 10.0 mi Calm Calm - N/A   Clear
10:15 AM 9.9 °F - 0.1 °F 65% 30.48 in 10.0 mi Calm Calm - N/A   Clear
10:35 AM 10.4 °F - -0.4 °F 62% 30.49 in 10.0 mi Calm Calm - N/A   Clear
10:55 AM 11.1 °F -2.4 °F -0.0 °F 61% 30.49 in 10.0 mi WNW 10.4 mph - N/A   Clear
11:15 AM 11.3 °F 5.1 °F -1.1 °F 57% 30.48 in 10.0 mi WNW 3.5 mph - N/A   Clear
11:35 AM 12.0 °F - -0.6 °F 57% 30.48 in 10.0 mi Calm Calm - N/A   Clear
11:55 AM 12.2 °F - -1.1 °F 55% 30.47 in 10.0 mi Calm Calm - N/A   Clear
12:15 PM 12.9 °F 2.6 °F -0.8 °F 54% 30.47 in 10.0 mi NW 6.9 mph - N/A   Clear
12:35 PM 13.1 °F 0.9 °F -0.6 °F 54% 30.45 in 10.0 mi NW 9.2 mph - N/A   Clear
12:55 PM 13.6 °F 0.7 °F -0.4 °F 54% 30.44 in 10.0 mi WNW 10.4 mph - N/A   Clear
1:15 PM 13.8 °F - -0.0 °F 54% 30.44 in 10.0 mi Calm Calm - N/A   Clear
1:35 PM 14.0 °F - -0.4 °F 53% 30.44 in 10.0 mi Calm Calm - N/A   Clear
1:55 PM 14.0 °F - -0.9 °F 52% 30.43 in 10.0 mi Calm Calm - N/A   Clear
2:15 PM 14.5 °F - -1.1 °F 50% 30.43 in 10.0 mi Calm Calm - N/A   Clear
2:35 PM 14.0 °F - -1.3 °F 51% 30.42 in 10.0 mi Calm Calm - N/A   Clear
2:55 PM 14.4 °F - -0.8 °F 51% - 10.0 mi Calm Calm - N/A   Clear
3:15 PM 14.0 °F - -0.9 °F 52% 30.42 in 10.0 mi Calm Calm - N/A   Clear
3:35 PM 14.0 °F - 0.3 °F 55% 30.42 in 10.0 mi Calm Calm - N/A   Clear
3:55 PM 13.5 °F - 0.7 °F 57% 30.42 in 10.0 mi Calm Calm - N/A   Clear
4:15 PM 12.6 °F - 0.5 °F 59% 30.42 in 10.0 mi Calm Calm - N/A   Clear
4:35 PM 11.5 °F - -0.0 °F 60% 30.42 in 10.0 mi Calm Calm - N/A   Clear
4:55 PM 10.4 °F - -0.4 °F 62% 30.41 in 10.0 mi Calm Calm - N/A   Clear
5:15 PM 9.5 °F - -0.4 °F 64% 30.41 in 10.0 mi Calm Calm - N/A   Clear
5:35 PM 9.3 °F - -0.8 °F 64% 30.40 in 10.0 mi Calm Calm - N/A   Clear
5:55 PM 8.4 °F - -0.0 °F 68% 30.40 in 10.0 mi Calm Calm - N/A   Clear
6:15 PM 6.1 °F - -1.7 °F 71% 30.40 in 10.0 mi Calm Calm - N/A   Clear
6:35 PM 7.3 °F - -0.6 °F 70% 30.39 in 10.0 mi Calm Calm - N/A   Clear
6:55 PM 5.7 °F - 0.1 °F 78% 30.39 in 10.0 mi Calm Calm - N/A   Clear
7:35 PM 3.4 °F - -0.9 °F 82% 30.38 in 10.0 mi Calm Calm - N/A   Clear
7:55 PM 3.2 °F - 0.1 °F 87% 30.37 in 10.0 mi Calm Calm - N/A   Clear
8:15 PM 1.2 °F - -2.9 °F 83% 30.37 in 10.0 mi Calm Calm - N/A   Clear
8:35 PM 1.8 °F - -0.8 °F 89% 30.36 in 10.0 mi Calm Calm - N/A   Clear
9:15 PM 1.0 °F - -2.2 °F 86% 30.36 in 10.0 mi Calm Calm - N/A   Clear
9:35 PM 0.7 °F - -2.6 °F 86% 30.35 in 10.0 mi Calm Calm - N/A   Clear
9:55 PM 2.8 °F - -2.2 °F 79% 30.35 in 10.0 mi Calm Calm - N/A   Clear
10:15 PM 4.3 °F - -1.5 °F 77% 30.35 in 10.0 mi Calm Calm - N/A   Clear
10:35 PM 4.1 °F - -1.1 °F 79% 30.35 in 10.0 mi Calm Calm - N/A   Clear
10:55 PM 2.8 °F - -2.7 °F 78% 30.34 in 10.0 mi Calm Calm - N/A   Clear
11:15 PM 3.2 °F - -1.7 °F 80% 30.34 in 10.0 mi Calm Calm - N/A   Clear
11:35 PM 5.0 °F - -0.6 °F 78% 30.34 in 10.0 mi Calm Calm - N/A   Clear
11:55 PM 4.8 °F - -0.4 °F 79% 30.33 in 10.0 mi Calm Calm - N/A   Clear